Location: Saint-Palais-sur-Mer
(45.6429°N, 1.0859°W)
Time: 00:27:47
(UTC+01:00)

Vanguard 1 - Pass Details

Date: 11 February 2026
Orbit: 653 x 3818 km, 34.2° (Epoch: 12 March)

Event Time Altitude Azimuth Distance (km) Brightness Sun altitude
Rises 01:31:23 0° 282° (WNW) 7,882 14.7 -58.3°
Reaches altitude 10° 01:38:46 10° 270° (W) 6,923 14.2 -58.1°
Enters shadow 01:42:39 15° 261° (W) 6,472 14.0 -58.0°
